DELTA 1 DEB, 21281

Orbit data source: Space-Track

DELTA 1 DEB, 21281 is space debris in SSO originally from a launch on Thu, 12 Jun 1975 UTC launched from the Air Force Western Test Range (AFWTR). Debris objects in space refer to the collection of defunct objects orbiting the Earth. Examples of debris include non-operational satellites, rocket bodies, and fragments generated from explosions, collisions, or faulty payload assembly.

Loading next visibility...
Identifier
21281, 1975-052S
Orbit
SSO
Country
Flag of USUS
Related business
Manufacturer
Unknown
Mission
Spacecraft
Bus & Motor
Unknown
Mass
Unknown
Launch date (UTC)
1975-06-12 (51 years ago)
Launch vehicle
Unknown
Launch site
Air Force Western Test Range (AFWTR)
Object type
Payload
Rocket body
Debris
Shape & HBR
Unknown shape, 0.7 m
Radar Cross Section
Medium (>0.1 m² and <1 m²)

Expand to show TLE details & history
Last TLE update: 15 hours ago

TLE from 15 hours ago
0 DELTA 1 DEB
1 21281U 75052S   26126.81718796  .00000066  00000-0  21778-3 0  9997
2 21281  99.9999  59.4161 0057665  35.3751  26.6136 13.34324564704212
Epoch: 2026-05-06T19:36Z
TLE epoch observation values (Epoch: 2026-05-06T19:36:45.039Z)
Latitude
60.76596°
Longitude
-117.71056°
Altitude
1,102.094 km
Speed
7.326 km/s
True Right ascension
02h 44m 35s
True Declination
60° 37' 33"
Sunlit
Object was in daylight at epoch
Visualization orbit readout
Latitude
Unknown
Longitude
Unknown
Altitude
Unknown
Speed
Unknown
Apparent Right ascension
Unknown
Apparent Declination
Unknown
Sunlit
N/A
Visualization observer readout
Local Sidereal Time
18:17:03
Azimuth
Unknown
Elevation
Unknown
Doppler factor
Unknown
Orbital elements
Apogee altitude
1,171.117 km
Perigee altitude
1,084.55 km
Semi-major axis
7,505.97 km
Eccentricity
0.00577
Inclination
99.9999°
RAAN
59.4161°
Arg. of periapsis
35.3751°
True anomaly
26.91153°
Mean anomaly
26.6136°
Eccentric anomaly
26.76237°
Mean motion
3.33759 °/min
Orbital period
107.86 mins
BSTAR
0.00021778
Loading maneuver chart data...
Computing Atmospheric mass density...
Loading historical data...
Loading historical data...
Loading historical data...
Loading historical data...
Loading historical data...
Loading historical data...
Loading historical data...

Documentation

Showing up to 5 results
|